KD6VEX-1 Weather Reports


time (UTC)temp
C
wind
direction
speed
KPH
gust
KPH
rain 1hr
cm
rain 24hr
cm
rain mn
cm
humidity
%
barometer
mb
20260507080340 12 0 0.0 1.6 0.00 0.00 0.00 88 1018.0
20260507075840 12 0 0.0 1.6 0.00 0.00 0.00 88 1018.0
20260507075340 12 0 0.0 1.6 0.00 0.00 0.00 88 1018.0
20260507074840 12 0 0.0 1.6 0.00 0.00 0.00 88 1018.1
20260507074340 12 0 0.0 1.6 0.00 0.00 0.00 88 1018.1
20260507073840 12 0 0.0 0.0 0.00 0.00 0.00 88 1018.1
20260507073340 12 0 0.0 1.6 0.00 0.00 0.00 88 1018.1
20260507072840 12 0 0.0 1.6 0.00 0.00 0.00 88 1018.0
20260507072340 12 0 0.0 1.6 0.00 0.00 0.00 88 1018.0
20260507071840 12 0 0.0 1.6 0.00 0.00 0.00 89 1018.1
20260507071340 12 0 0.0 1.6 0.00 0.00 0.00 89 1018.1
20260507070840 12 0 0.0 1.6 0.00 0.00 0.00 89 1018.1
20260507070340 12 0 0.0 1.6 0.00 0.00 0.00 89 1018.1
20260507065840 12 0 0.0 1.6 0.00 0.00 0.00 89 1018.1
20260507065340 12 0 0.0 1.6 0.00 0.00 0.00 89 1018.2
20260507064840 12 0 0.0 1.6 0.00 0.00 0.00 90 1018.2
20260507064340 11 0 0.0 1.6 0.00 0.00 0.00 90 1018.2
20260507063840 11 0 0.0 0.0 0.00 0.00 0.00 90 1018.2
20260507063340 11 0 0.0 0.0 0.00 0.00 0.00 90 1018.2
20260507062840 11 0 0.0 0.0 0.00 0.00 0.00 90 1018.2
20260507062340 11 0 0.0 0.0 0.00 0.00 0.00 89 1018.3
20260507061840 11 0 0.0 0.0 0.00 0.00 0.00 89 1018.2
20260507061340 11 0 0.0 0.0 0.00 0.00 0.00 89 1018.2
20260507060840 11 0 0.0 0.0 0.00 0.00 0.00 89 1018.3
20260507060340 11 0 0.0 0.0 0.00 0.00 0.00 89 1018.3
20260507055840 11 0 0.0 0.0 0.00 0.00 0.00 88 1018.4
20260507055340 11 0 0.0 0.0 0.00 0.00 0.00 88 1018.2
20260507054840 11 0 0.0 0.0 0.00 0.00 0.00 88 1018.3
20260507054340 11 0 0.0 0.0 0.00 0.00 0.00 88 1018.3
20260507053840 12 0 0.0 0.0 0.00 0.00 0.00 87 1018.3
20260507053340 12 0 0.0 0.0 0.00 0.00 0.00 87 1018.3
20260507052840 12 0 0.0 1.6 0.00 0.00 0.00 87 1018.3
20260507052340 12 0 0.0 1.6 0.00 0.00 0.00 86 1018.3
20260507051840 12 0 0.0 0.0 0.00 0.00 0.00 86 1018.4
20260507051340 12 0 0.0 0.0 0.00 0.00 0.00 85 1018.4
20260507050841 12 0 0.0 0.0 0.00 0.00 0.00 85 1018.4
20260507050340 12 0 0.0 0.0 0.00 0.00 0.00 84 1018.4
20260507045840 12 0 0.0 0.0 0.00 0.00 0.00 84 1018.3
20260507045340 13 0 0.0 0.0 0.00 0.00 0.00 83 1018.3
20260507044840 13 0 0.0 0.0 0.00 0.00 0.00 83 1018.3
20260507044340 13 0 0.0 1.6 0.00 0.00 0.00 82 1018.2
20260507043840 13 0 0.0 1.6 0.00 0.00 0.00 82 1018.2
20260507043340 13 0 0.0 1.6 0.00 0.00 0.00 82 1018.2
20260507042840 13 0 0.0 1.6 0.00 0.00 0.00 82 1018.2
20260507042340 13 0 0.0 1.6 0.00 0.00 0.00 81 1018.2
20260507041840 13 0 0.0 1.6 0.00 0.00 0.00 81 1018.1
20260507041340 13 0 0.0 3.2 0.00 0.00 0.00 81 1018.1
20260507040840 13 0 0.0 3.2 0.00 0.00 0.00 80 1018.1
20260507040340 13 0 0.0 1.6 0.00 0.00 0.00 80 1018.0
20260507035840 14 0 0.0 3.2 0.00 0.00 0.00 79 1017.9
20260507035340 14 0 0.0 3.2 0.00 0.00 0.00 79 1017.9
20260507034840 14 0 0.0 3.2 0.00 0.00 0.00 78 1017.8
20260507033840 14 0 0.0 4.8 0.00 0.00 0.00 77 1017.7
20260507033340 15 0 0.0 4.8 0.00 0.00 0.00 77 1017.6
20260507032841 15 0 0.0 3.2 0.00 0.00 0.00 76 1017.5
20260507032340 15 0 0.0 3.2 0.00 0.00 0.00 76 1017.5
20260507031840 15 0 0.0 3.2 0.00 0.00 0.00 75 1017.4
20260507031340 15 0 0.0 3.2 0.00 0.00 0.00 75 1017.3
20260507030840 15 0 0.0 3.2 0.00 0.00 0.00 74 1017.3
20260507030340 15 0 0.0 3.2 0.00 0.00 0.00 74 1017.2
20260507025840 15 0 0.0 3.2 0.00 0.00 0.00 73 1017.1
20260507025340 16 0 0.0 4.8 0.00 0.00 0.00 73 1017.2
20260507024840 16 94 1.6 6.4 0.00 0.00 0.00 72 1017.2
20260507024340 16 0 0.0 6.4 0.00 0.00 0.00 71 1017.2
20260507023840 16 0 0.0 6.4 0.00 0.00 0.00 71 1017.1
20260507023340 16 0 0.0 6.4 0.00 0.00 0.00 70 1017.1
20260507022842 16 0 0.0 6.4 0.00 0.00 0.00 70 1017.0
20260507022343 17 0 0.0 6.4 0.00 0.00 0.00 69 1016.9
20260507021840 17 99 1.6 6.4 0.00 0.00 0.00 67 1017.0
20260507021340 17 0 0.0 6.4 0.00 0.00 0.00 66 1016.9
20260507020840 18 68 1.6 6.4 0.00 0.00 0.00 65 1016.9
20260507020340 18 83 1.6 6.4 0.00 0.00 0.00 65 1016.9
20260507015341 18 105 1.6 6.4 0.00 0.00 0.00 64 1016.8
20260507014841 18 119 1.6 11.3 0.00 0.00 0.00 63 1016.7
20260507014340 19 138 1.6 11.3 0.00 0.00 0.00 62 1016.7
20260507013840 20 234 1.6 8.0 0.00 0.00 0.00 60 1016.6
20260507013340 20 0 0.0 8.0 0.00 0.00 0.00 60 1016.6
20260507012840 20 78 3.2 8.0 0.00 0.00 0.00 59 1016.7
20260507012340 20 0 0.0 9.7 0.00 0.00 0.00 59 1016.6
20260507011840 20 123 3.2 9.7 0.00 0.00 0.00 59 1016.6
20260507011340 20 187 1.6 9.7 0.00 0.00 0.00 59 1016.5
20260507010840 21 97 1.6 9.7 0.00 0.00 0.00 58 1016.6
20260507010340 21 108 3.2 8.0 0.00 0.00 0.00 57 1016.5
20260507005840 21 105 1.6 9.7 0.00 0.00 0.00 57 1016.5
20260507005340 21 75 1.6 9.7 0.00 0.00 0.00 57 1016.4
20260507004840 21 100 3.2 8.0 0.00 0.00 0.00 57 1016.4
20260507003840 22 113 3.2 8.0 0.00 0.00 0.00 56 1016.4
20260507003340 22 92 1.6 9.7 0.00 0.00 0.00 55 1016.4
20260507002840 22 86 3.2 9.7 0.00 0.00 0.00 55 1016.3
20260507002340 22 62 3.2 9.7 0.00 0.00 0.00 55 1016.3
20260507001840 22 117 1.6 9.7 0.00 0.00 0.00 55 1016.2
20260507001340 21 73 3.2 9.7 0.00 0.00 0.00 56 1016.2
20260507000840 21 83 3.2 16.1 0.00 0.00 0.00 56 1016.2
20260507000343 22 102 6.4 16.1 0.00 0.00 0.00 55 1016.2
20260506235840 22 66 4.8 12.9 0.00 0.00 0.00 55 1016.3
20260506235343 22 146 1.6 12.9 0.00 0.00 0.00 54 1016.2
20260506234840 22 66 3.2 12.9 0.00 0.00 0.00 53 1016.2
20260506234340 22 360 3.2 12.9 0.00 0.00 0.00 53 1016.2
20260506233840 22 45 3.2 12.9 0.00 0.00 0.00 52 1016.2
20260506233340 22 48 3.2 12.9 0.00 0.00 0.00 53 1016.2
20260506232840 22 100 3.2 16.1 0.00 0.00 0.00 54 1016.2
20260506232341 22 88 4.8 16.1 0.00 0.00 0.00 53 1016.2
20260506231840 22 107 4.8 14.5 0.00 0.00 0.00 53 1016.2
20260506231341 22 65 3.2 14.5 0.00 0.00 0.00 53 1016.2
20260506230840 23 109 3.2 9.7 0.00 0.00 0.00 52 1016.3
20260506230340 23 39 3.2 14.5 0.00 0.00 0.00 52 1016.2
20260506225840 23 83 3.2 14.5 0.00 0.00 0.00 52 1016.3
20260506225340 23 71 3.2 14.5 0.00 0.00 0.00 51 1016.3
20260506224840 23 86 1.6 16.1 0.00 0.00 0.00 52 1016.4
20260506224340 23 123 1.6 16.1 0.00 0.00 0.00 52 1016.4
20260506223840 23 118 1.6 14.5 0.00 0.00 0.00 51 1016.4
20260506223340 23 71 3.2 14.5 0.00 0.00 0.00 51 1016.5
20260506222840 23 86 3.2 11.3 0.00 0.00 0.00 51 1016.4
20260506222340 23 96 1.6 14.5 0.00 0.00 0.00 51 1016.5
20260506221840 23 99 3.2 14.5 0.00 0.00 0.00 52 1016.5
20260506221340 23 48 3.2 11.3 0.00 0.00 0.00 52 1016.6
20260506220841 23 55 3.2 19.3 0.00 0.00 0.00 52 1016.7
20260506220340 23 50 3.2 19.3 0.00 0.00 0.00 52 1016.7
20260506215840 23 89 3.2 14.5 0.00 0.00 0.00 51 1016.9
20260506215340 23 36 4.8 14.5 0.00 0.00 0.00 51 1016.9
20260506214840 23 58 1.6 12.9 0.00 0.00 0.00 51 1016.9
20260506214340 23 75 3.2 9.7 0.00 0.00 0.00 51 1016.9
20260506213840 23 140 4.8 14.5 0.00 0.00 0.00 51 1017.0
20260506213340 23 345 3.2 14.5 0.00 0.00 0.00 51 1017.0
20260506212840 23 320 3.2 14.5 0.00 0.00 0.00 51 1017.0
20260506212340 23 98 4.8 14.5 0.00 0.00 0.00 50 1016.9
20260506211840 23 111 1.6 9.7 0.00 0.00 0.00 51 1017.0
20260506211340 23 19 3.2 12.9 0.00 0.00 0.00 51 1016.9
20260506210840 23 63 4.8 12.9 0.00 0.00 0.00 50 1017.0
20260506210340 23 102 4.8 12.9 0.00 0.00 0.00 50 1017.0
20260506205840 23 32 4.8 12.9 0.00 0.00 0.00 50 1017.0
20260506205342 23 97 4.8 12.9 0.00 0.00 0.00 50 1017.1
20260506204840 23 105 3.2 11.3 0.00 0.00 0.00 50 1016.9
20260506204340 23 110 4.8 9.7 0.00 0.00 0.00 50 1017.0
20260506203840 23 66 3.2 11.3 0.00 0.00 0.00 51 1016.9
20260506203340 23 105 3.2 12.9 0.00 0.00 0.00 51 1016.9
20260506202340 23 63 3.2 14.5 0.00 0.00 0.00 50 1017.1
20260506201841 23 55 3.2 17.7 0.00 0.00 0.00 50 1017.1
20260506201340 24 8 3.2 17.7 0.00 0.00 0.00 50 1017.1
20260506200840 24 105 3.2 17.7 0.00 0.00 0.00 51 1017.1
20260506200340 24 85 3.2 12.9 0.00 0.00 0.00 50 1017.1
20260506195840 24 121 3.2 12.9 0.00 0.00 0.00 50 1017.2
20260506195340 24 74 1.6 9.7 0.00 0.00 0.00 50 1017.2
20260506194840 24 75 3.2 12.9 0.00 0.00 0.00 50 1017.2
20260506194340 24 73 1.6 12.9 0.00 0.00 0.00 49 1017.1
20260506193840 24 92 3.2 11.3 0.00 0.00 0.00 49 1017.1
20260506193340 24 91 3.2 11.3 0.00 0.00 0.00 49 1017.2
20260506192840 24 91 1.6 9.7 0.00 0.00 0.00 49 1017.2
20260506192340 23 40 1.6 9.7 0.00 0.00 0.00 49 1017.2
20260506191840 23 76 3.2 8.0 0.00 0.00 0.00 50 1017.3
20260506191340 23 41 3.2 8.0 0.00 0.00 0.00 49 1017.4
20260506190840 23 83 1.6 8.0 0.00 0.00 0.00 50 1017.5
20260506190340 23 107 1.6 6.4 0.00 0.00 0.00 50 1017.5
20260506185840 23 52 3.2 6.4 0.00 0.00 0.00 49 1017.6
20260506185340 23 96 1.6 6.4 0.00 0.00 0.00 49 1017.8
20260506184840 23 0 0.0 8.0 0.00 0.00 0.00 50 1017.9
20260506184340 22 112 3.2 8.0 0.00 0.00 0.00 52 1018.0
20260506183841 22 111 1.6 8.0 0.00 0.00 0.00 52 1018.0
20260506183340 22 115 1.6 6.4 0.00 0.00 0.00 52 1018.1
20260506182840 22 0 0.0 6.4 0.00 0.00 0.00 54 1018.0
20260506182341 22 107 1.6 8.0 0.00 0.00 0.00 55 1018.2
20260506181840 21 51 1.6 8.0 0.00 0.00 0.00 54 1018.3
20260506181340 21 93 1.6 6.4 0.00 0.00 0.00 55 1018.3
20260506180842 21 91 1.6 4.8 0.00 0.00 0.00 54 1018.4
20260506175840 21 0 0.0 6.4 0.00 0.00 0.00 54 1018.5
20260506175340 21 0 0.0 6.4 0.00 0.00 0.00 55 1018.4
20260506174840 21 0 0.0 4.8 0.00 0.00 0.00 56 1018.4
20260506174340 20 0 0.0 3.2 0.00 0.00 0.00 58 1018.4
20260506173841 20 0 0.0 6.4 0.00 0.00 0.00 57 1018.4
20260506173340 19 109 1.6 6.4 0.00 0.00 0.00 59 1018.4
20260506172840 20 123 1.6 6.4 0.00 0.00 0.00 59 1018.5
20260506172340 20 51 1.6 4.8 0.00 0.00 0.00 60 1018.4
20260506171840 19 0 0.0 3.2 0.00 0.00 0.00 60 1018.5
20260506171340 18 0 0.0 3.2 0.00 0.00 0.00 62 1018.6
20260506170840 18 0 0.0 4.8 0.00 0.00 0.00 62 1018.5
20260506170340 18 41 1.6 4.8 0.00 0.00 0.00 64 1018.5
20260506165840 17 0 0.0 4.8 0.00 0.00 0.00 65 1018.5
20260506165340 17 53 1.6 4.8 0.00 0.00 0.00 65 1018.5
20260506164841 17 45 1.6 4.8 0.00 0.00 0.00 66 1018.5
20260506164340 17 0 0.0 3.2 0.00 0.00 0.00 66 1018.5
20260506163840 17 0 0.0 3.2 0.00 0.00 0.00 67 1018.4
20260506163341 17 0 0.0 4.8 0.00 0.00 0.00 68 1018.4
20260506162840 17 77 1.6 6.4 0.00 0.00 0.00 68 1018.5
20260506162340 16 0 0.0 6.4 0.00 0.00 0.00 69 1018.5
20260506161840 16 0 0.0 6.4 0.00 0.00 0.00 71 1018.5
20260506161340 16 0 0.0 6.4 0.00 0.00 0.00 71 1018.7
20260506160840 16 0 0.0 3.2 0.00 0.00 0.00 72 1018.7
20260506160340 15 0 0.0 4.8 0.00 0.00 0.00 72 1018.6
20260506155840 15 0 0.0 4.8 0.00 0.00 0.00 73 1018.7
20260506155340 15 0 0.0 3.2 0.00 0.00 0.00 75 1018.7
20260506154840 15 0 0.0 3.2 0.00 0.00 0.00 76 1018.7
20260506154340 14 0 0.0 3.2 0.00 0.00 0.00 77 1018.6
20260506153340 13 0 0.0 1.6 0.00 0.00 0.00 79 1018.6
20260506152840 13 0 0.0 1.6 0.00 0.00 0.00 80 1018.5
20260506152340 13 0 0.0 3.2 0.00 0.00 0.00 81 1018.6
20260506151840 13 0 0.0 3.2 0.00 0.00 0.00 82 1018.7
20260506151340 12 0 0.0 3.2 0.00 0.00 0.00 82 1018.8
20260506150840 12 0 0.0 3.2 0.00 0.00 0.00 83 1018.8
20260506150340 12 0 0.0 3.2 0.00 0.00 0.00 83 1018.7
20260506145840 12 0 0.0 3.2 0.00 0.00 0.00 83 1018.7
20260506145340 12 0 0.0 3.2 0.00 0.00 0.00 84 1018.6
20260506144840 12 0 0.0 1.6 0.00 0.00 0.00 84 1018.6
20260506144340 12 0 0.0 1.6 0.00 0.00 0.00 84 1018.6
20260506143840 12 0 0.0 1.6 0.00 0.00 0.00 84 1018.6
20260506143340 12 0 0.0 1.6 0.00 0.00 0.00 84 1018.6
20260506142840 12 0 0.0 1.6 0.00 0.00 0.00 84 1018.5
20260506142340 12 0 0.0 1.6 0.00 0.00 0.00 84 1018.4
20260506141840 12 0 0.0 1.6 0.00 0.00 0.00 85 1018.5
20260506141340 11 0 0.0 1.6 0.00 0.00 0.00 85 1018.4
20260506140840 11 0 0.0 1.6 0.00 0.00 0.00 85 1018.4
20260506140340 11 0 0.0 1.6 0.00 0.00 0.00 86 1018.4
20260506135840 11 0 0.0 1.6 0.00 0.00 0.00 86 1018.3
20260506135340 11 0 0.0 1.6 0.00 0.00 0.00 86 1018.3
20260506134840 11 0 0.0 0.0 0.00 0.00 0.00 87 1018.2
20260506134340 11 0 0.0 0.0 0.00 0.00 0.00 87 1018.3
20260506133840 11 0 0.0 0.0 0.00 0.00 0.00 87 1018.3
20260506133340 11 0 0.0 0.0 0.00 0.00 0.00 87 1018.3
20260506132840 11 0 0.0 1.6 0.00 0.00 0.00 87 1018.2
20260506132340 11 0 0.0 1.6 0.00 0.00 0.00 87 1018.1
20260506131840 11 0 0.0 0.0 0.00 0.00 0.00 87 1018.1
20260506131340 11 0 0.0 1.6 0.00 0.00 0.00 87 1018.1
20260506130840 11 0 0.0 1.6 0.00 0.00 0.00 87 1018.0
20260506130340 11 0 0.0 0.0 0.00 0.00 0.00 86 1018.0
20260506125840 11 0 0.0 0.0 0.00 0.00 0.00 85 1017.9
20260506125340 11 0 0.0 0.0 0.00 0.00 0.00 85 1017.8
20260506124840 11 0 0.0 0.0 0.00 0.00 0.00 85 1017.9
20260506124340 11 0 0.0 1.6 0.00 0.00 0.00 85 1017.8
20260506123840 11 0 0.0 1.6 0.00 0.00 0.00 85 1017.8
20260506123340 11 0 0.0 1.6 0.00 0.00 0.00 85 1017.9
20260506122840 11 0 0.0 1.6 0.00 0.00 0.00 85 1017.9
20260506122340 11 0 0.0 3.2 0.00 0.00 0.00 85 1017.8
20260506121840 11 0 0.0 3.2 0.00 0.00 0.00 85 1017.9
20260506121340 11 0 0.0 3.2 0.00 0.00 0.00 86 1017.9
20260506120840 11 0 0.0 0.0 0.00 0.00 0.00 86 1017.8
20260506120340 11 0 0.0 0.0 0.00 0.00 0.00 86 1017.8
20260506115840 11 0 0.0 0.0 0.00 0.00 0.00 86 1017.9
20260506115340 11 0 0.0 1.6 0.00 0.00 0.00 86 1017.9
20260506114840 11 0 0.0 1.6 0.00 0.00 0.00 86 1018.0
20260506114340 11 0 0.0 0.0 0.00 0.00 0.00 85 1018.1
20260506113840 11 0 0.0 1.6 0.00 0.00 0.00 85 1018.1
20260506113340 11 0 0.0 1.6 0.00 0.00 0.00 85 1018.0
20260506112840 11 0 0.0 1.6 0.00 0.00 0.00 85 1017.9
20260506112340 11 0 0.0 0.0 0.00 0.00 0.00 85 1018.0
20260506111840 11 0 0.0 0.0 0.00 0.00 0.00 85 1018.0
20260506111340 11 0 0.0 1.6 0.00 0.00 0.00 86 1018.0
20260506110840 11 0 0.0 1.6 0.00 0.00 0.00 86 1017.9
20260506110340 11 0 0.0 1.6 0.00 0.00 0.00 86 1018.0
20260506105841 11 0 0.0 0.0 0.00 0.00 0.00 86 1018.0
20260506105340 11 0 0.0 0.0 0.00 0.00 0.00 86 1018.0
20260506104840 11 0 0.0 1.6 0.00 0.00 0.00 86 1018.0
20260506104340 11 0 0.0 1.6 0.00 0.00 0.00 86 1018.0
20260506103840 11 0 0.0 0.0 0.00 0.00 0.00 86 1017.9
20260506103340 11 0 0.0 0.0 0.00 0.00 0.00 86 1017.9
20260506102840 11 0 0.0 1.6 0.00 0.00 0.00 85 1017.9
20260506102340 11 0 0.0 1.6 0.00 0.00 0.00 85 1017.9
20260506101840 11 0 0.0 1.6 0.00 0.00 0.00 85 1017.9
20260506101340 11 0 0.0 1.6 0.00 0.00 0.00 86 1017.9
20260506100340 12 0 0.0 1.6 0.00 0.00 0.00 85 1017.9
20260506095840 12 0 0.0 0.0 0.00 0.00 0.00 85 1017.8
20260506095340 12 0 0.0 0.0 0.00 0.00 0.00 85 1017.8
20260506094840 12 0 0.0 1.6 0.00 0.00 0.00 85 1017.9
20260506094340 12 0 0.0 1.6 0.00 0.00 0.00 86 1017.9
20260506093840 12 0 0.0 1.6 0.00 0.00 0.00 86 1017.9
20260506093340 12 0 0.0 1.6 0.00 0.00 0.00 86 1017.9
20260506092840 12 0 0.0 1.6 0.00 0.00 0.00 86 1017.9
20260506092340 12 0 0.0 1.6 0.00 0.00 0.00 86 1017.8
20260506091840 12 0 0.0 1.6 0.00 0.00 0.00 86 1017.9
20260506091341 12 0 0.0 1.6 0.00 0.00 0.00 86 1018.0
20260506090840 11 0 0.0 1.6 0.00 0.00 0.00 86 1018.0
20260506090340 11 0 0.0 1.6 0.00 0.00 0.00 86 1018.0
20260506085840 11 0 0.0 1.6 0.00 0.00 0.00 86 1018.0
20260506085340 11 0 0.0 3.2 0.00 0.00 0.00 86 1018.2
20260506084840 11 0 0.0 3.2 0.00 0.00 0.00 87 1018.2
20260506084340 11 0 0.0 3.2 0.00 0.00 0.00 87 1018.2
20260506083840 11 0 0.0 3.2 0.00 0.00 0.00 87 1018.2
20260506083340 11 0 0.0 3.2 0.00 0.00 0.00 87 1018.3
20260506082840 11 0 0.0 0.0 0.00 0.00 0.00 87 1018.2
20260506082340 11 0 0.0 1.6 0.00 0.00 0.00 87 1018.3
20260506081842 11 0 0.0 1.6 0.00 0.00 0.00 87 1018.2
20260506081340 11 0 0.0 1.6 0.00 0.00 0.00 87 1018.2
20260506080840 11 0 0.0 1.6 0.00 0.00 0.00 87 1018.2